Location: アルンシュタイン
(50.0000°N, 10.0000°E)
Time: 09:58:06
(UTC+01:00)

Envisat - Pass Details

Date: 02 October 2023
Orbit: 762 x 764 km, 98.3° (Epoch: 07 December)

Event Time Altitude Azimuth Distance (km) Brightness Sun altitude
Rises 05:22:28 0° 13° (NNE) 3,245 6.7 -19.6°
Reaches altitude 10° 05:24:47 10° 12° (NNE) 2,314 5.9 -19.2°
Maximum altitude 05:29:52 76° 287° (WNW) 792 2.9 -18.4°
Enters shadow 05:33:46 17° 204° (SSW) 1,845 4.6 -17.8°
